Wellsville, NY

1:08 PM EST on December 06, 2019 (GMT -0500)
Wellsville Municipal-Tarantine

Weather History for KELZ - August, 2019

Change the Weather History Date:

Sunday, August 4, 2019

  Actual Average (WUND) Record (WUND)
Temperature  
Mean Temperature 66 °F -  
Max Temperature 77 °F - - (-1)
Min Temperature 57 °F - - (-1)
Cooling Degree Days 1    
Growing Degree Days 16 (Base 50)    
Moisture  
Dew Point 58 °F    
Average Humidity 72    
Maximum Humidity 93    
Minimum Humidity 55    
Precipitation  
Precipitation 0.00 in - - ()
Sea Level Pressure  
Sea Level Pressure 30.04 in    
Wind  
Wind Speed 3 mph ()    
Max Wind Speed 10 mph    
Max Gust Speed 16 mph    
Visibility 10.0 miles    
Events      
Averages and records for this station are not official NWS values.
T = Trace of Precipitation, MM = Missing Value Source: Averaged Metar Reports

Daily Weather History Graph

Daily Weather History Graph

Search for Another Location

Airport or City:

Astronomy

Aug. 04, 2019 Rise Set
Actual Time 6:07 AM EDT 8:27 PM EDT
Civil Twilight 5:36 AM EDT 8:58 PM EDT
Nautical Twilight 4:57 AM EDT 9:37 PM EDT
Astronomical Twilight 4:14 AM EDT 10:20 PM EDT
Moon 10:14 AM EDT (8/4) 11:01 PM EDT (8/4)
Length of Visible Light 15h 22m
Length of Day
14h 19m
Waxing Crescent, 18% of the Moon is Illuminated
Aug 4
Waxing Crescent
Aug 7
First Quarter
Aug 15
Full
Aug 23
Last Quarter
Aug 30
New

Hourly Weather History & Observations

Time (EDT) Temp. Dew Point Humidity Pressure Visibility Wind Dir Wind Speed Gust Speed Precip Events Conditions
12:56 AM 60.1 °F 51.1 °F 72% 30.05 in 10.0 mi Calm Calm - N/A   Clear
1:56 AM 59.0 °F 53.1 °F 81% 30.04 in 10.0 mi Calm Calm - N/A   Mostly Cloudy
2:56 AM 59.0 °F 53.1 °F 81% 30.03 in 10.0 mi Calm Calm - N/A   Partly Cloudy
3:56 AM 60.1 °F 53.1 °F 78% 30.03 in 10.0 mi Calm Calm - N/A   Clear
4:56 AM 60.1 °F 55.0 °F 83% 30.02 in 10.0 mi NNW 5.8 mph - N/A   Mostly Cloudy
5:56 AM 60.1 °F 55.0 °F 83% 30.02 in 10.0 mi Calm Calm - N/A   Partly Cloudy
6:56 AM 57.9 °F 55.9 °F 93% 30.04 in 10.0 mi West 4.6 mph - N/A   Clear
7:56 AM 63.0 °F 60.1 °F 90% 30.04 in 10.0 mi West 5.8 mph - N/A   Clear
8:56 AM 66.9 °F 62.1 °F 84% 30.04 in 10.0 mi West 6.9 mph - N/A   Clear
9:56 AM 71.1 °F 62.1 °F 73% 30.04 in 10.0 mi Variable 4.6 mph - N/A   Clear
10:56 AM 73.0 °F 62.1 °F 68% 30.05 in 10.0 mi Variable 6.9 mph - N/A   Scattered Clouds
11:29 AM 73.0 °F 62.1 °F 68% 30.07 in 10.0 mi NW 6.9 mph - N/A   Mostly Cloudy
11:42 AM 75.9 °F 62.1 °F 62% 30.07 in 10.0 mi NNW 10.4 mph - N/A   Mostly Cloudy
11:56 AM 75.0 °F 62.1 °F 64% 30.04 in 10.0 mi North 6.9 mph - N/A   Scattered Clouds
12:56 PM 71.1 °F 62.1 °F 73% 30.04 in 10.0 mi North 9.2 mph 16.1 mph N/A   Overcast
1:56 PM 75.0 °F 57.9 °F 55% 30.03 in 10.0 mi North 9.2 mph - N/A   Partly Cloudy
2:56 PM 75.9 °F 62.1 °F 62% 30.02 in 10.0 mi Variable 6.9 mph - N/A   Partly Cloudy
3:56 PM 75.0 °F 62.1 °F 64% 30.02 in 10.0 mi North 8.1 mph - N/A   Mostly Cloudy
4:56 PM 75.0 °F 60.1 °F 60% 30.02 in 10.0 mi North 10.4 mph 16.1 mph N/A   Partly Cloudy
5:56 PM 73.0 °F 57.9 °F 59% 30.02 in 10.0 mi North 9.2 mph - N/A   Clear
6:56 PM 72.0 °F 57.0 °F 59% 30.02 in 10.0 mi Variable 4.6 mph - N/A   Clear
7:56 PM 69.1 °F 55.9 °F 63% 30.03 in 10.0 mi Calm Calm - N/A   Clear
8:56 PM 66.0 °F 55.0 °F 68% 30.04 in 10.0 mi Calm Calm - N/A   Clear
9:56 PM 63.0 °F 53.1 °F 70% 30.06 in 10.0 mi NNE 5.8 mph - N/A   Clear
10:56 PM 61.0 °F 54.0 °F 78% 30.06 in 10.0 mi Calm Calm - N/A   Clear
11:56 PM 57.9 °F 53.1 °F 84% 30.06 in 10.0 mi Calm Calm - N/A   Clear